Regional Weather Roundup
Issued by NWS

Home | Current Version | Previous Version | Text Only | Print | Product List | Glossary Off
Versions: 1 2 3 4 5 6 7 8 9 10 11 12 13 14 15 16 17 18 19 20 21 22 23 24 25 26 27 28 29 30 31 32 33 34 35 36 37 38 39 40 41 42 43 44 45 46 47 48 49 50

000
ASUS45 KCYS 010810
RWRWY

WYOMING REGIONAL WEATHER ROUNDUP
NATIONAL WEATHER SERVICE CHEYENNE WY
200 AM MDT WED APR 01 2015

NOTE:  "FAIR" INDICATES FEW OR NO CLOUDS BELOW 12,000 FEET
WITH NO SIGNIFICANT WEATHER AND/OR OBSTRUCTIONS TO VISIBILITY.

WYZ001-010900-
YELLOWSTONE NATIONAL PARK

CITY           SKY/WX    TMP DP  RH WIND       PRES   REMARKS
LK YELLOWSTONE NOT AVBL
W YELLOWSTONE  NOT AVBL

$$
WYZ002>013-054>058-071-098>099-010900-
NORTHERN WYOMING

CITY           SKY/WX    TMP DP  RH WIND       PRES   REMARKS
JACKSON        CLOUDY    43  25  49 SW10G20   29.87R
CODY           FAIR      46  34  61 SW10      29.69R
GREYBULL       FAIR      57  29  34 N8        29.64R
WORLAND        FAIR      52  26  36 N8        29.65R
SHERIDAN       FAIR      57  28  33 NW36G43   29.63R
BUFFALO        FAIR      59  19  21 NW8       29.61R
GILLETTE       FAIR      59  22  24 SW15      29.55F
HULETT         FAIR      63  19  19 SW8       29.54F
NEWCASTLE      FAIR      57  16  19 E9        29.60S

$$
WYZ014>020-022>026-101>103-010900-
CENTRAL WYOMING

CITY           SKY/WX    TMP DP  RH WIND       PRES   REMARKS
BIG PINEY      FAIR      37  25  61 N13       29.85R WCI  29
PINEDALE       FAIR      36  28  75 NW7       29.85R WCI  30
DUBOIS         CLOUDY    41  28  60 NW9       29.79F
LANDER         NOT AVBL
RIVERTON       FAIR      53  27  36 W14       29.71R
CASPER         FAIR      49  21  33 SW14      29.68F
DOUGLAS        FAIR      58  19  22 SW8       29.67F

$$
WYZ021-027>030-104>119-010900-
SOUTHERN WYOMING

CITY           SKY/WX    TMP DP  RH WIND       PRES   REMARKS
EVANSTON       FAIR      42  32  67 SW12      29.89F
KEMMERER       FAIR      43  30  61 W14G20    29.87R
FORT BRIDGER   FAIR      45  35  66 SW22G28   29.90R
ROCK SPRINGS   MOCLDY    46  25  43 SW10      29.84F
DIXON          PTSUNNY   57  16  20 S20G26    29.84S
RAWLINS        CLOUDY    52  17  25 SW17      29.81R
SARATOGA       FAIR      39  19  45 S10       29.82F WCI  32
LARAMIE        FAIR      44  18  35 S7        29.82F
CHEYENNE       FAIR      46  21  37 SW9       29.78F
TORRINGTON     FAIR      46  23  40 E5        29.66F
PINE BLUFFS    FAIR      45  19  36 SW8       29.74F

$$


USA.gov is the U.S. government's official web portal to all federal, state and local government web resources and services.